This is the latest recevied weather packets stored in our database for station/object WW6Q. If no packets are shown the sender has not sent any weather packets the latest 10 day(s).
| Time | Temp. | Humidity | Pressure | Rain* | Wind** | Luminosity | Snow |
|---|---|---|---|---|---|---|---|
| 1787983281 | 14.44° C | 96% | 1021.4 hPa | 0 mm | - | 0 W/m² | - |
| 1787982977 | 14.44° C | 96% | 1021.5 hPa | 0 mm | - | 0 W/m² | - |
| 1787982672 | 14.44° C | 96% | 1021.5 hPa | 0 mm | - | 0 W/m² | - |
| 1787982368 | 14.44° C | 95% | 1021.6 hPa | 0 mm | - | 0 W/m² | - |
| 1787982068 | 15° C | 94% | 1021.6 hPa | 0 mm | - | 0 W/m² | - |
| 1787981764 | 15° C | 93% | 1021.6 hPa | 0 mm | - | 0 W/m² | - |
| 1787981463 | 15.56° C | 92% | 1021.6 hPa | 0 mm | - | 0 W/m² | - |
| 1787981158 | 15.56° C | 91% | 1021.4 hPa | 0 mm | - | 0 W/m² | - |
| 1787980856 | 15.56° C | 92% | 1021.3 hPa | 0 mm | - | 0 W/m² | - |
| 1787980552 | 15.56° C | 92% | 1021.3 hPa | 0 mm | - | 0 W/m² | - |
| 1787980247 | 15° C | 93% | 1021.4 hPa | 0 mm | - | 0 W/m² | - |
| 1787979943 | 15° C | 96% | 1021.4 hPa | 0 mm | - | 0 W/m² | - |
| 1787979642 | 15° C | 96% | 1021.5 hPa | 0 mm | - | 0 W/m² | - |
| 1787979342 | 15° C | 96% | 1021.3 hPa | 0 mm | - | 0 W/m² | - |
| 1787979042 | 15° C | 95% | 1021.3 hPa | 0 mm | - | 0 W/m² | - |
| 1787978741 | 15.56° C | 95% | 1021.3 hPa | 0 mm | - | 0 W/m² | - |
| 1787978436 | 15.56° C | 93% | 1021.3 hPa | 0 mm | - | 0 W/m² | - |
| 1787978132 | 15.56° C | 92% | 1021.3 hPa | 0 mm | - | 0 W/m² | - |
| 1787977832 | 16.11° C | 91% | 1021.2 hPa | 0 mm | - | 0 W/m² | - |
| 1787977532 | 16.67° C | 90% | 1021.2 hPa | 0 mm | - | 0 W/m² | - |
| 1787977232 | 16.67° C | 87% | 1021.1 hPa | 0 mm | - | 0 W/m² | - |
| 1787976927 | 16.67° C | 87% | 1020.9 hPa | 0 mm | - | 0 W/m² | - |
| 1787976627 | 16.67° C | 88% | 1020.9 hPa | 0 mm | - | 0 W/m² | - |
| 1787976323 | 16.11° C | 90% | 1020.8 hPa | 0 mm | - | 0 W/m² | - |
| 1787976023 | 16.11° C | 91% | 1020.9 hPa | 0 mm | - | 0 W/m² | - |
* Rain latest hour (hover to see other rain measurements)
** Current wind speed in m/s (hover to see current wind gust speed)